Regional Weather Roundup
Issued by NWS

Home | Current Version | Previous Version | Text Only | Print | Product List | Glossary On
Versions: 1 2 3 4 5 6 7 8 9 10 11 12 13 14 15 16 17 18 19 20 21 22 23 24 25 26 27 28 29 30 31 32 33 34 35 36 37 38 39 40 41 42 43 44 45 46 47 48 49 50
000
ASUS45 KPSR 250410
RWRAZ

ARIZONA REGIONAL HOURLY WEATHER ROUNDUP
NATIONAL WEATHER SERVICE PHOENIX AZ
900 PM MST FRI OCT 24 2014

NOTE: FAIR INDICATES FEW OR NO CLOUDS BELOW 12,000 FEET WITH NO
SIGNIFICANT WEATHER AND/OR OBSTRUCTIONS TO VISIBILITY.

AZZ001>003-036-250500-
NORTHWEST ARIZONA

CITY           SKY/WX    TMP DP  RH WIND       PRES   REMARKS
BULLHEAD CITY  CLEAR     81  37  21 CALM      29.95R
KINGMAN        CLEAR     64  38  38 S12       30.12R
$$

AZZ004>008-015-016-018-250500-
NORTH CENTRAL ARIZONA

CITY           SKY/WX    TMP DP  RH WIND       PRES   REMARKS
GRAND CANYON   CLEAR     41  22  46 CALM      30.34R
PRESCOTT       CLEAR     60  39  45 CALM      30.25R
FLAGSTAFF      CLEAR     44  29  55 CALM      30.38R
PAYSON         CLEAR     61  43  51 CALM      30.28R
PAGE           CLEAR     65  35  33 CALM      30.18R
$$

AZZ009>014-017-250500-
NORTHEAST ARIZONA

CITY           SKY/WX    TMP DP  RH WIND       PRES   REMARKS
WINSLOW        CLEAR     62  37  39 W10       30.23R
SAINT JOHNS    CLEAR     59  39  47 CALM      30.28R
WINDOW ROCK    CLEAR     48  29  47 CALM      30.37R
SHOW LOW       CLEAR     52  37  58 CALM      30.37R
$$

AZZ023-250500-
GREATER PHOENIX AREA

CITY           SKY/WX    TMP DP  RH WIND       PRES   REMARKS
PHOENIX        CLEAR     83  50  31 W3        29.96R
BUCKEYE          N/A     75  45  33 NE6       29.97R
LUKE AFB       CLEAR    N/A N/A N/A N3          N/A
DEER VALLEY    CLEAR     79  45  29 NE7       29.99R
SCOTTSDALE     CLEAR     80  48  32 N5        30.01R
MESA-GATEWAY   CLEAR     75  52  43 CALM      30.01R
CHANDLER       CLEAR     77  55  47 CALM      29.99R
$$

AZZ027-028-250500-
SOUTHWEST MARICOPA COUNTY AND PINAL COUNTY

CITY           SKY/WX    TMP DP  RH WIND       PRES   REMARKS
CASA GRANDE    CLEAR     75  46  35 CALM      30.00R
$$

AZZ503-504-507>509-250500-
SOUTHEAST ARIZONA

CITY           SKY/WX    TMP DP  RH WIND       PRES   REMARKS
TUCSON         CLEAR     77  47  34 S5        30.10R
DAVIS-MONTHAN  CLEAR     73  48  40 SW6       30.09R
NOGALES        CLEAR     67  46  47 E8        30.18R
SIERRA VISTA   CLEAR     68  45  42 SW12      30.23R
DOUGLAS        CLEAR     60  45  57 NW5       30.19R
SAFFORD        CLEAR     68  49  50 E7        30.12R
$$

AZZ020-021-025-026-031-250500-
SOUTHWEST ARIZONA

CITY           SKY/WX    TMP DP  RH WIND       PRES   REMARKS
YUMA           CLEAR     81  46  29 SW3       29.91R
$$

CAZ031-033-041-043-047-048-061-250500-
SOUTHERN CALIFORNIA

CITY           SKY/WX    TMP DP  RH WIND       PRES   REMARKS
DOWNTOWN L.A.  CLEAR     70  57  63 CALM      29.96R
L.A. AIRPORT   CLEAR     68  65  90 W8        29.96R
SAN DIEGO      CLEAR     74  59  59 NW3       29.97R
BURBANK        CLEAR     73  47  39 CALM      29.97R
ONTARIO        CLEAR     75  29  18 NW5       29.99R
RIVERSIDE      CLEAR     73  33  23 CALM      29.99R
PALM SPRINGS   CLEAR     82  47  29 CALM      29.94S
EL CENTRO NAS  CLEAR     80  45  28 CALM      29.90R
IMPERIAL       CLEAR     79  49  34 NE3       29.89R
BLYTHE         CLEAR     83  47  28 SE7       29.91R
NEEDLES        CLEAR     81  39  22 W8        29.95R
$$

NVZ020-UTZ003-250500-
SOUTHERN NEVADA-UTAH

CITY           SKY/WX    TMP DP  RH WIND       PRES   REMARKS
LAS VEGAS      CLEAR     75  39  27 SW12      29.98R
SALT LAKE CITY CLEAR     57  37  47 SE7       30.08S
$$

NMZ009-TXZ055-250500-
NEW MEXICO-WEST TEXAS

CITY           SKY/WX    TMP DP  RH WIND       PRES   REMARKS
ALBUQUERQUE    CLEAR     60  36  40 CALM      30.28R
EL PASO        CLEAR     71  47  42 CALM      30.20R
$$


........................KEY........................
SKY/WX - SKY CONDITION/WEATHER
TMP    - TEMPERATURE IN FAHRENHEIT
DP     - DEW POINT IN FAHRENHEIT
RH     - RELATIVE HUMIDITY IN PERCENT
WIND   - DIRECTION AND SPEED IN MILES PER HOUR (MPH)
VRB    - VARIABLE WIND DIRECTION
PRES   - MEAN SEA LEVEL PRESSURE IN INCHES OF MERCURY
         F - FALLING PRESSURE   R - RISING PRESSURE
         S - STEADY PRESSURE
VSB    - VISIBILITY IN MILES
HX     - HEAT INDEX IN FAHRENHEIT
WCI    - WIND CHILL INDEX IN FAHRENHEIT
TC     - TEMPERATURE IN CELSIUS WHICH IS ALSO KNOWN AS
         TEMPERATURE IN CENTIGRADE
AFB    - AIR FORCE BASE
         LUKE AFB IS LUKE AIR FORCE BASE
         DAVIS-MONTHAN IS DAVIS-MONTHAN AIR FORCE BASE
NAS    - NAVAL AIR STATION
         EL CENTRO NAS IS EL CENTRO NAVAL AIR STATION
N/A    - NOT AVAILABLE



USA.gov is the U.S. government's official web portal to all federal, state and local government web resources and services.